Time,TemperatureF,DewpointF,PressureIn,WindDirection,WindDirectionDegrees,WindSpeedMPH,WindSpeedGustMPH,Humidity,HourlyPrecipIn,Conditions,Clouds,dailyrainin,SoftwareType,DateUTC
2013-02-07 00:00:00,19.7,13.7,30.30,NE,38,0.0,0.0,77,0.00,RA,RA,0.02,WeatherDisplay:10.37,2013-02-07 05:00:00,
2013-02-07 00:01:00,19.5,13.5,30.31,NE,38,0.0,0.0,77,0.00,RA,,0.00,WeatherDisplay:10.37,2013-02-07 05:01:00,
2013-02-07 00:06:00,19.0,13.3,30.31,NE,38,0.0,1.1,78,0.00,RA,,0.00,WeatherDisplay:10.37,2013-02-07 05:06:00,
2013-02-07 00:11:00,18.7,13.6,30.30,NE,38,0.3,0.0,80,0.00,BKN,,0.00,WeatherDisplay:10.37,2013-02-07 05:11:00,
2013-02-07 00:16:00,18.7,13.6,30.30,NE,38,0.0,0.0,80,0.00,BKN,,0.00,WeatherDisplay:10.37,2013-02-07 05:16:00,
2013-02-07 00:21:00,18.6,13.2,30.30,NE,38,0.1,0.0,79,0.00,BKN,,0.00,WeatherDisplay:10.37,2013-02-07 05:21:00,
2013-02-07 00:26:00,18.5,13.1,30.30,NE,38,0.3,1.0,79,0.00,BKN,,0.00,WeatherDisplay:10.37,2013-02-07 05:26:00,
2013-02-07 00:31:00,18.7,13.6,30.30,NE,38,0.4,1.1,80,0.00,BKN,,0.00,WeatherDisplay:10.37,2013-02-07 05:31:00,
2013-02-07 00:36:00,18.9,13.7,30.30,ESE,107,0.4,2.3,80,0.00,BKN,,0.00,WeatherDisplay:10.37,2013-02-07 05:36:00,
2013-02-07 00:41:00,19.1,13.9,30.30,ESE,107,0.3,4.6,80,0.00,BKN,,0.00,WeatherDisplay:10.37,2013-02-07 05:41:00,
2013-02-07 00:46:00,19.3,14.1,30.30,ESE,107,0.4,2.3,80,0.00,BKN,,0.00,WeatherDisplay:10.37,2013-02-07 05:46:00,
2013-02-07 00:51:00,19.7,14.2,30.30,ESE,108,0.7,3.5,79,0.00,BKN,,0.00,WeatherDisplay:10.37,2013-02-07 05:51:00,
2013-02-07 00:56:00,20.0,14.2,30.30,ESE,119,0.2,1.1,78,0.00,BKN,,0.00,WeatherDisplay:10.37,2013-02-07 05:56:00,
2013-02-07 01:01:00,20.3,14.2,30.30,ESE,119,0.7,1.1,77,0.00,CLR,,0.00,WeatherDisplay:10.37,2013-02-07 06:01:00,
2013-02-07 01:06:00,20.5,14.4,30.30,ESE,119,0.0,1.1,77,0.00,CLR,,0.00,WeatherDisplay:10.37,2013-02-07 06:06:00,
2013-02-07 01:11:00,20.6,14.2,30.30,ESE,119,1.2,4.0,76,0.00,CLR,,0.00,WeatherDisplay:10.37,2013-02-07 06:11:00,
2013-02-07 01:16:00,20.7,14.0,30.30,ESE,110,1.0,3.5,75,0.00,CLR,,0.00,WeatherDisplay:10.37,2013-02-07 06:16:00,
2013-02-07 01:21:00,20.7,14.0,30.30,ESE,110,0.0,0.0,75,0.00,CLR,,0.00,WeatherDisplay:10.37,2013-02-07 06:21:00,
2013-02-07 01:26:00,20.7,14.0,30.30,SE,134,1.6,4.0,75,0.00,CLR,,0.00,WeatherDisplay:10.37,2013-02-07 06:26:00,
2013-02-07 01:31:00,20.7,14.0,30.30,SSE,167,2.5,4.0,75,0.00,CLR,,0.00,WeatherDisplay:10.37,2013-02-07 06:31:00,
2013-02-07 01:36:00,20.8,14.1,30.31,SSE,167,0.0,0.0,75,0.00,CLR,,0.00,WeatherDisplay:10.37,2013-02-07 06:36:00,
2013-02-07 01:41:00,20.9,14.2,30.31,ESE,119,0.5,1.1,75,0.00,CLR,,0.00,WeatherDisplay:10.37,2013-02-07 06:41:00,
2013-02-07 01:46:00,21.0,14.3,30.30,ESE,120,0.6,2.3,75,0.00,CLR,,0.00,WeatherDisplay:10.37,2013-02-07 06:46:00,
2013-02-07 01:51:00,20.8,13.8,30.31,ESE,120,0.0,0.0,74,0.00,CLR,,0.00,WeatherDisplay:10.37,2013-02-07 06:51:00,
2013-02-07 01:56:00,20.6,13.6,30.31,ESE,120,0.0,0.0,74,0.00,CLR,,0.00,WeatherDisplay:10.37,2013-02-07 06:56:00,
2013-02-07 02:01:00,20.2,13.5,30.31,ESE,120,0.0,0.0,75,0.00,CLR,,0.00,WeatherDisplay:10.37,2013-02-07 07:01:00,
2013-02-07 02:06:00,19.8,13.5,30.31,ESE,120,0.0,0.0,76,0.00,CLR,,0.00,WeatherDisplay:10.37,2013-02-07 07:06:00,
2013-02-07 02:11:00,19.6,13.3,30.32,ESE,120,0.0,0.0,76,0.00,CLR,,0.00,WeatherDisplay:10.37,2013-02-07 07:11:00,
2013-02-07 02:16:00,19.4,13.4,30.32,ESE,120,0.0,0.0,77,0.00,CLR,,0.00,WeatherDisplay:10.37,2013-02-07 07:16:00,
2013-02-07 02:21:00,19.2,13.5,30.32,ESE,120,0.0,0.0,78,0.00,CLR,,0.00,WeatherDisplay:10.37,2013-02-07 07:21:00,
2013-02-07 02:26:00,19.0,13.3,30.32,ESE,120,0.0,0.0,78,0.00,CLR,,0.00,WeatherDisplay:10.37,2013-02-07 07:26:00,
2013-02-07 02:31:00,18.8,13.4,30.32,ESE,120,0.0,0.0,79,0.00,CLR,,0.00,WeatherDisplay:10.37,2013-02-07 07:31:00,
2013-02-07 02:36:00,18.6,13.5,30.32,ESE,120,0.0,0.0,80,0.00,CLR,,0.00,WeatherDisplay:10.37,2013-02-07 07:36:00,
2013-02-07 02:41:00,18.5,13.4,30.32,ESE,120,0.0,0.0,80,0.00,CLR,,0.00,WeatherDisplay:10.37,2013-02-07 07:41:00,
2013-02-07 02:46:00,18.4,13.3,30.33,ESE,120,0.0,0.0,80,0.00,CLR,,0.00,WeatherDisplay:10.37,2013-02-07 07:46:00,
2013-02-07 02:51:00,18.1,13.0,30.33,ESE,120,0.0,0.0,80,0.00,CLR,,0.00,WeatherDisplay:10.37,2013-02-07 07:51:00,
2013-02-07 02:56:00,17.9,13.1,30.33,ESE,120,0.0,0.0,81,0.00,CLR,,0.00,WeatherDisplay:10.37,2013-02-07 07:56:00,
2013-02-07 03:01:00,17.7,13.1,30.33,ESE,120,0.0,0.0,82,0.00,BKN,,0.00,WeatherDisplay:10.37,2013-02-07 08:01:00,
2013-02-07 03:06:00,17.4,12.8,30.33,ESE,120,0.0,0.0,82,0.00,BKN,,0.00,WeatherDisplay:10.37,2013-02-07 08:06:00,
2013-02-07 03:11:00,17.2,12.9,30.33,ESE,120,0.0,0.0,83,0.00,BKN,,0.00,WeatherDisplay:10.37,2013-02-07 08:11:00,
2013-02-07 03:16:00,17.1,12.8,30.33,ESE,120,0.0,0.0,83,0.00,BKN,,0.00,WeatherDisplay:10.37,2013-02-07 08:16:00,
2013-02-07 03:21:00,16.9,12.9,30.33,ESE,120,0.0,0.0,84,0.00,BKN,,0.00,WeatherDisplay:10.37,2013-02-07 08:21:00,
2013-02-07 03:26:00,16.7,12.7,30.32,ESE,120,0.0,0.0,84,0.00,BKN,,0.00,WeatherDisplay:10.37,2013-02-07 08:26:00,
2013-02-07 03:31:00,16.5,12.8,30.32,ESE,120,0.0,0.0,85,0.00,BKN,,0.00,WeatherDisplay:10.37,2013-02-07 08:31:00,
2013-02-07 03:36:00,16.5,13.0,30.32,ESE,120,0.0,0.0,86,0.00,BKN,,0.00,WeatherDisplay:10.37,2013-02-07 08:36:00,
2013-02-07 03:41:00,16.4,13.2,30.31,ESE,120,0.0,0.0,87,0.00,BKN,,0.00,WeatherDisplay:10.37,2013-02-07 08:41:00,
2013-02-07 03:46:00,16.5,13.3,30.31,ESE,120,0.0,0.0,87,0.00,BKN,,0.00,WeatherDisplay:10.37,2013-02-07 08:46:00,
2013-02-07 03:51:00,16.6,13.7,30.31,ESE,120,0.0,0.0,88,0.00,BKN,,0.00,WeatherDisplay:10.37,2013-02-07 08:51:00,
2013-02-07 03:56:00,16.8,13.9,30.31,ESE,120,0.0,0.0,88,0.00,BKN,,0.00,WeatherDisplay:10.37,2013-02-07 08:56:00,
2013-02-07 04:01:00,16.9,14.0,30.31,ESE,120,0.0,0.0,88,0.00,OVC,,0.00,WeatherDisplay:10.37,2013-02-07 09:01:00,
2013-02-07 04:06:00,17.1,14.2,30.30,ESE,120,0.0,0.0,88,0.00,OVC,,0.00,WeatherDisplay:10.37,2013-02-07 09:06:00,
2013-02-07 04:11:00,17.3,14.4,30.30,ESE,120,0.0,1.1,88,0.00,OVC,,0.00,WeatherDisplay:10.37,2013-02-07 09:11:00,
2013-02-07 04:16:00,17.6,14.9,30.30,ESE,120,0.0,0.0,89,0.00,OVC,,0.00,WeatherDisplay:10.37,2013-02-07 09:16:00,
2013-02-07 04:21:00,18.1,15.7,30.31,ESE,120,1.0,2.3,90,0.00,OVC,,0.00,WeatherDisplay:10.37,2013-02-07 09:21:00,
2013-02-07 04:26:00,18.6,15.9,30.31,ESE,120,0.0,0.0,89,0.00,OVC,,0.00,WeatherDisplay:10.37,2013-02-07 09:26:00,
2013-02-07 04:31:00,19.1,16.4,30.31,SSE,149,0.8,2.3,89,0.00,OVC,,0.00,WeatherDisplay:10.37,2013-02-07 09:31:00,
2013-02-07 04:36:00,19.5,16.3,30.31,SSE,149,0.3,1.0,87,0.00,OVC,,0.00,WeatherDisplay:10.37,2013-02-07 09:36:00,
2013-02-07 04:41:00,19.9,16.7,30.31,SSE,149,0.9,3.5,87,0.00,OVC,,0.00,WeatherDisplay:10.37,2013-02-07 09:41:00,
2013-02-07 04:46:00,20.0,16.8,30.31,SSE,149,0.0,0.0,87,0.00,OVC,,0.00,WeatherDisplay:10.37,2013-02-07 09:46:00,
2013-02-07 04:51:00,20.1,16.9,30.31,SSE,149,0.7,1.0,87,0.00,OVC,,0.00,WeatherDisplay:10.37,2013-02-07 09:51:00,
2013-02-07 04:56:00,20.2,17.0,30.32,SSE,149,0.0,0.0,87,0.00,OVC,,0.00,WeatherDisplay:10.37,2013-02-07 09:56:00,
2013-02-07 05:01:00,20.2,17.2,30.32,SSE,149,0.0,0.0,88,0.00,OVC,,0.00,WeatherDisplay:10.37,2013-02-07 10:01:00,
2013-02-07 05:06:00,20.2,17.2,30.32,SSE,149,0.4,1.1,88,0.00,OVC,,0.00,WeatherDisplay:10.37,2013-02-07 10:06:00,
2013-02-07 05:11:00,20.2,17.2,30.32,SSE,149,0.0,0.0,88,0.00,OVC,,0.00,WeatherDisplay:10.37,2013-02-07 10:11:00,
2013-02-07 05:16:00,20.3,17.6,30.32,SSE,149,0.4,3.5,89,0.00,OVC,,0.00,WeatherDisplay:10.37,2013-02-07 10:16:00,
2013-02-07 05:21:00,20.4,17.7,30.32,SSE,149,0.0,1.1,89,0.00,OVC,,0.00,WeatherDisplay:10.37,2013-02-07 10:21:00,
2013-02-07 05:26:00,20.6,17.9,30.32,SSE,149,0.4,2.3,89,0.00,OVC,,0.00,WeatherDisplay:10.37,2013-02-07 10:26:00,
2013-02-07 05:31:00,20.7,18.0,30.32,SSE,149,0.0,0.0,89,0.00,OVC,,0.00,WeatherDisplay:10.37,2013-02-07 10:31:00,
2013-02-07 05:36:00,20.8,18.1,30.32,SSE,149,0.0,0.0,89,0.00,OVC,,0.00,WeatherDisplay:10.37,2013-02-07 10:36:00,
2013-02-07 05:41:00,20.9,18.2,30.32,SSE,149,0.0,0.0,89,0.00,OVC,,0.00,WeatherDisplay:10.37,2013-02-07 10:41:00,
2013-02-07 05:46:00,21.0,18.3,30.32,SSE,149,0.0,0.0,89,0.00,OVC,,0.00,WeatherDisplay:10.37,2013-02-07 10:46:00,
2013-02-07 05:51:00,21.1,18.4,30.31,SSE,149,0.0,0.0,89,0.00,OVC,,0.00,WeatherDisplay:10.37,2013-02-07 10:51:00,
2013-02-07 05:56:00,21.2,18.5,30.31,SSE,149,0.2,2.0,89,0.00,OVC,,0.00,WeatherDisplay:10.37,2013-02-07 10:56:00,
2013-02-07 06:01:00,21.6,18.3,30.32,SSE,149,0.5,1.0,87,0.00,OVC,,0.00,WeatherDisplay:10.37,2013-02-07 11:01:00,
2013-02-07 06:06:00,21.8,18.3,30.31,SSE,149,3.1,4.6,86,0.00,OVC,,0.00,WeatherDisplay:10.37,2013-02-07 11:06:00,
2013-02-07 06:11:00,22.1,17.7,30.31,SE,136,1.9,5.8,83,0.00,OVC,,0.00,WeatherDisplay:10.37,2013-02-07 11:11:00,
2013-02-07 06:16:00,22.5,17.3,30.31,SE,133,2.0,4.0,80,0.00,OVC,,0.00,WeatherDisplay:10.37,2013-02-07 11:16:00,
2013-02-07 06:21:00,22.8,17.0,30.31,SE,146,2.6,4.6,78,0.00,OVC,,0.00,WeatherDisplay:10.37,2013-02-07 11:21:00,
2013-02-07 06:26:00,23.1,17.0,30.31,SE,125,3.3,5.8,77,0.00,OVC,,0.00,WeatherDisplay:10.37,2013-02-07 11:26:00,
2013-02-07 06:31:00,23.3,17.2,30.31,SE,128,0.1,1.0,77,0.00,OVC,,0.00,WeatherDisplay:10.37,2013-02-07 11:31:00,
2013-02-07 06:36:00,23.4,17.3,30.31,SE,128,0.0,0.0,77,0.00,OVC,,0.00,WeatherDisplay:10.37,2013-02-07 11:36:00,
2013-02-07 06:41:00,23.5,17.0,30.31,SE,128,0.0,0.0,76,0.00,OVC,,0.00,WeatherDisplay:10.37,2013-02-07 11:41:00,
2013-02-07 06:46:00,23.6,17.4,30.31,SE,128,0.0,0.0,77,0.00,OVC,,0.00,WeatherDisplay:10.37,2013-02-07 11:46:00,
2013-02-07 06:51:00,23.7,17.2,30.31,SE,128,0.0,2.3,76,0.00,OVC,,0.00,WeatherDisplay:10.37,2013-02-07 11:51:00,
2013-02-07 06:56:00,23.7,17.2,30.31,ESE,121,1.5,3.5,76,0.00,OVC,,0.00,WeatherDisplay:10.37,2013-02-07 11:56:00,
2013-02-07 07:01:00,23.8,17.0,30.31,ESE,121,0.2,2.3,75,0.00,OVC,,0.00,WeatherDisplay:10.37,2013-02-07 12:01:00,
2013-02-07 07:06:00,23.9,17.1,30.31,ESE,121,1.8,4.0,75,0.00,OVC,,0.00,WeatherDisplay:10.37,2013-02-07 12:06:00,
2013-02-07 07:11:00,24.0,17.5,30.31,ESE,121,0.0,0.0,76,0.00,OVC,,0.00,WeatherDisplay:10.37,2013-02-07 12:11:00,
2013-02-07 07:16:00,24.1,17.6,30.32,SE,126,0.0,3.5,76,0.00,OVC,,0.00,WeatherDisplay:10.37,2013-02-07 12:16:00,
2013-02-07 07:21:00,24.2,17.4,30.32,SE,126,0.8,2.3,75,0.00,OVC,,0.00,WeatherDisplay:10.37,2013-02-07 12:21:00,
2013-02-07 07:26:00,24.2,17.4,30.32,ESE,112,0.1,1.1,75,0.00,OVC,,0.00,WeatherDisplay:10.37,2013-02-07 12:26:00,
2013-02-07 07:31:00,24.3,17.5,30.32,ESE,112,0.8,1.1,75,0.00,OVC,,0.00,WeatherDisplay:10.37,2013-02-07 12:31:00,
2013-02-07 07:36:00,24.3,17.5,30.32,ESE,112,0.0,0.0,75,0.00,OVC,,0.00,WeatherDisplay:10.37,2013-02-07 12:36:00,
2013-02-07 07:41:00,24.3,17.5,30.31,ESE,113,0.0,2.3,75,0.00,OVC,,0.00,WeatherDisplay:10.37,2013-02-07 12:41:00,
2013-02-07 07:46:00,24.4,17.6,30.31,ESE,113,0.0,0.0,75,0.00,OVC,,0.00,WeatherDisplay:10.37,2013-02-07 12:46:00,
2013-02-07 07:51:00,24.4,17.9,30.32,ESE,104,0.0,0.0,76,0.00,OVC,,0.00,WeatherDisplay:10.37,2013-02-07 12:51:00,
2013-02-07 07:56:00,24.4,17.6,30.32,ESE,106,0.0,0.0,75,0.00,OVC,,0.00,WeatherDisplay:10.37,2013-02-07 12:56:00,
2013-02-07 08:01:00,24.5,18.3,30.31,ESE,105,0.0,0.0,77,0.00,OVC,,0.00,WeatherDisplay:10.37,2013-02-07 13:01:00,
2013-02-07 08:06:00,24.5,18.0,30.31,North,360,0.0,0.0,76,0.00,OVC,,0.00,WeatherDisplay:10.37,2013-02-07 13:06:00,
2013-02-07 08:11:00,24.6,18.4,30.31,North,360,1.2,3.5,77,0.00,OVC,,0.00,WeatherDisplay:10.37,2013-02-07 13:11:00,
2013-02-07 08:16:00,24.6,18.4,30.30,North,360,1.5,3.5,77,0.00,OVC,,0.00,WeatherDisplay:10.37,2013-02-07 13:16:00,
2013-02-07 08:21:00,24.6,18.1,30.30,North,360,0.2,0.0,76,0.00,OVC,,0.00,WeatherDisplay:10.37,2013-02-07 13:21:00,
2013-02-07 08:26:00,24.7,18.2,30.31,North,360,1.4,3.0,76,0.00,OVC,,0.00,WeatherDisplay:10.37,2013-02-07 13:26:00,
2013-02-07 08:31:00,24.8,18.0,30.31,North,360,1.8,4.6,75,0.00,OVC,,0.00,WeatherDisplay:10.37,2013-02-07 13:31:00,
2013-02-07 08:36:00,24.9,18.1,30.30,North,360,1.0,3.5,75,0.00,OVC,,0.00,WeatherDisplay:10.37,2013-02-07 13:36:00,
2013-02-07 08:41:00,25.1,18.3,30.30,North,360,2.2,3.5,75,0.00,OVC,,0.00,WeatherDisplay:10.37,2013-02-07 13:41:00,
2013-02-07 08:46:00,25.2,18.7,30.30,North,360,0.0,1.1,76,0.00,OVC,,0.00,WeatherDisplay:10.37,2013-02-07 13:46:00,
2013-02-07 08:51:00,25.4,18.6,30.30,SE,143,3.4,5.0,75,0.00,OVC,,0.00,WeatherDisplay:10.37,2013-02-07 13:51:00,
2013-02-07 08:56:00,25.7,19.2,30.30,SE,143,0.8,2.0,76,0.00,OVC,,0.00,WeatherDisplay:10.37,2013-02-07 13:56:00,
2013-02-07 09:01:00,25.9,19.4,30.30,SE,141,2.2,4.6,76,0.00,OVC,,0.00,WeatherDisplay:10.37,2013-02-07 14:01:00,
2013-02-07 09:06:00,26.1,19.3,30.29,SE,132,2.0,2.3,75,0.00,OVC,,0.00,WeatherDisplay:10.37,2013-02-07 14:06:00,
2013-02-07 09:11:00,26.4,19.9,30.29,SE,132,1.6,2.3,76,0.00,OVC,,0.00,WeatherDisplay:10.37,2013-02-07 14:11:00,
2013-02-07 09:16:00,26.6,20.1,30.29,SE,132,0.0,0.0,76,0.00,OVC,,0.00,WeatherDisplay:10.37,2013-02-07 14:16:00,
2013-02-07 09:21:00,27.0,20.4,30.28,North,360,0.0,0.0,76,0.00,OVC,,0.00,WeatherDisplay:10.37,2013-02-07 14:21:00,
2013-02-07 09:26:00,27.3,20.4,30.28,SSE,156,2.3,3.5,75,0.00,OVC,,0.00,WeatherDisplay:10.37,2013-02-07 14:26:00,
2013-02-07 09:31:00,27.6,20.7,30.28,North,360,1.3,4.0,75,0.00,OVC,,0.00,WeatherDisplay:10.37,2013-02-07 14:31:00,
2013-02-07 09:36:00,28.0,21.1,30.27,North,360,0.6,2.3,75,0.00,OVC,,0.00,WeatherDisplay:10.37,2013-02-07 14:36:00,
2013-02-07 09:41:00,28.6,21.4,30.27,SSE,151,3.4,5.8,74,0.00,OVC,,0.00,WeatherDisplay:10.37,2013-02-07 14:41:00,
2013-02-07 09:46:00,29.3,22.0,30.27,North,360,1.6,3.5,74,0.00,OVC,,0.00,WeatherDisplay:10.37,2013-02-07 14:46:00,
2013-02-07 09:51:00,29.9,22.3,30.27,North,360,4.3,6.9,73,0.00,OVC,,0.00,WeatherDisplay:10.37,2013-02-07 14:51:00,
2013-02-07 09:56:00,30.3,22.4,30.27,North,360,2.5,3.5,72,0.00,OVC,,0.00,WeatherDisplay:10.37,2013-02-07 14:56:00,
2013-02-07 10:01:00,30.6,22.3,30.26,North,360,1.9,2.3,71,0.00,OVC,,0.00,WeatherDisplay:10.37,2013-02-07 15:01:00,
2013-02-07 10:06:00,30.8,22.2,30.26,North,360,1.3,3.5,70,0.00,OVC,,0.00,WeatherDisplay:10.37,2013-02-07 15:06:00,
2013-02-07 10:11:00,31.0,22.4,30.26,North,360,1.2,2.3,70,0.00,OVC,,0.00,WeatherDisplay:10.37,2013-02-07 15:11:00,
2013-02-07 10:16:00,31.2,22.2,30.26,North,360,3.2,5.0,69,0.00,OVC,,0.00,WeatherDisplay:10.37,2013-02-07 15:16:00,
2013-02-07 10:21:00,31.2,22.5,30.26,North,360,2.7,3.5,70,0.00,OVC,,0.00,WeatherDisplay:10.37,2013-02-07 15:21:00,
2013-02-07 10:26:00,31.4,22.7,30.26,North,360,0.5,2.0,70,0.00,OVC,,0.00,WeatherDisplay:10.37,2013-02-07 15:26:00,
2013-02-07 10:31:00,31.6,22.6,30.26,North,360,3.6,4.6,69,0.00,OVC,,0.00,WeatherDisplay:10.37,2013-02-07 15:31:00,
2013-02-07 10:36:00,31.7,22.7,30.26,North,360,2.5,3.5,69,0.00,OVC,,0.00,WeatherDisplay:10.37,2013-02-07 15:36:00,
2013-02-07 10:41:00,31.9,22.9,30.26,North,360,2.7,3.5,69,0.00,OVC,,0.00,WeatherDisplay:10.37,2013-02-07 15:41:00,
2013-02-07 10:46:00,31.9,23.2,30.26,North,360,4.3,6.9,70,0.00,OVC,,0.00,WeatherDisplay:10.37,2013-02-07 15:46:00,
2013-02-07 10:51:00,32.1,23.1,30.26,North,360,4.6,6.9,69,0.00,OVC,,0.00,WeatherDisplay:10.37,2013-02-07 15:51:00,
2013-02-07 10:56:00,32.3,23.3,30.26,North,360,4.7,8.1,69,0.00,OVC,,0.00,WeatherDisplay:10.37,2013-02-07 15:56:00,
2013-02-07 11:01:00,32.6,23.2,30.26,North,360,5.2,5.8,68,0.00,OVC,,0.00,WeatherDisplay:10.37,2013-02-07 16:01:00,
2013-02-07 11:06:00,32.7,23.6,30.26,North,360,3.9,5.8,69,0.00,OVC,,0.00,WeatherDisplay:10.37,2013-02-07 16:06:00,
2013-02-07 11:11:00,32.9,23.5,30.26,North,360,1.0,3.5,68,0.00,OVC,,0.00,WeatherDisplay:10.37,2013-02-07 16:11:00,
2013-02-07 11:16:00,33.1,24.0,30.26,North,360,1.5,4.6,69,0.00,OVC,,0.00,WeatherDisplay:10.37,2013-02-07 16:16:00,
2013-02-07 11:21:00,33.3,24.2,30.25,North,360,0.1,1.1,69,0.00,OVC,,0.00,WeatherDisplay:10.37,2013-02-07 16:21:00,
2013-02-07 11:26:00,33.5,24.4,30.25,North,360,3.8,4.0,69,0.00,OVC,,0.00,WeatherDisplay:10.37,2013-02-07 16:26:00,
2013-02-07 11:31:00,33.8,24.4,30.25,North,360,2.9,3.5,68,0.00,OVC,,0.00,WeatherDisplay:10.37,2013-02-07 16:31:00,
2013-02-07 11:36:00,34.1,25.0,30.25,North,360,1.0,2.0,69,0.00,OVC,,0.00,WeatherDisplay:10.37,2013-02-07 16:36:00,
2013-02-07 11:41:00,34.4,24.9,30.25,North,360,1.1,4.6,68,0.00,OVC,,0.00,WeatherDisplay:10.37,2013-02-07 16:41:00,
2013-02-07 11:46:00,34.8,25.3,30.24,North,360,3.2,6.0,68,0.00,OVC,,0.00,WeatherDisplay:10.37,2013-02-07 16:46:00,
2013-02-07 11:51:00,35.2,26.0,30.24,South,191,3.9,6.9,69,0.00,OVC,,0.00,WeatherDisplay:10.37,2013-02-07 16:51:00,
2013-02-07 11:56:00,35.7,25.8,30.24,SE,143,1.2,8.1,67,0.00,OVC,,0.00,WeatherDisplay:10.37,2013-02-07 16:56:00,
2013-02-07 12:01:00,36.0,26.1,30.23,South,181,3.1,9.2,67,0.00,OVC,,0.00,WeatherDisplay:10.37,2013-02-07 17:01:00,
2013-02-07 12:06:00,36.6,26.7,30.22,North,360,5.8,8.1,67,0.00,OVC,,0.00,WeatherDisplay:10.37,2013-02-07 17:06:00,
2013-02-07 12:11:00,37.2,26.9,30.22,North,360,3.0,4.0,66,0.00,OVC,,0.00,WeatherDisplay:10.37,2013-02-07 17:11:00,
2013-02-07 12:16:00,37.6,26.9,30.21,North,360,3.9,5.8,65,0.00,OVC,,0.00,WeatherDisplay:10.37,2013-02-07 17:16:00,
2013-02-07 12:21:00,37.9,26.8,30.21,North,360,6.0,9.2,64,0.00,OVC,,0.00,WeatherDisplay:10.37,2013-02-07 17:21:00,
2013-02-07 12:26:00,38.1,27.0,30.21,North,360,2.7,3.5,64,0.00,OVC,,0.00,WeatherDisplay:10.37,2013-02-07 17:26:00,
2013-02-07 12:31:00,38.2,26.7,30.21,North,360,3.2,4.6,63,0.00,OVC,,0.00,WeatherDisplay:10.37,2013-02-07 17:31:00,
2013-02-07 12:36:00,38.2,26.7,30.20,North,360,6.4,11.5,63,0.00,OVC,,0.00,WeatherDisplay:10.37,2013-02-07 17:36:00,
2013-02-07 12:42:00,38.2,26.7,30.20,North,360,3.5,6.9,63,0.00,OVC,,0.00,WeatherDisplay:10.37,2013-02-07 17:42:00,
2013-02-07 12:47:00,38.4,27.3,30.19,North,360,1.4,3.5,64,0.00,OVC,,0.00,WeatherDisplay:10.37,2013-02-07 17:47:00,
2013-02-07 12:52:00,38.6,27.1,30.19,North,360,3.3,6.9,63,0.00,OVC,,0.00,WeatherDisplay:10.37,2013-02-07 17:52:00,
2013-02-07 12:57:00,39.1,27.2,30.19,North,360,5.7,5.7,62,0.00,OVC,,0.00,WeatherDisplay:10.37,2013-02-07 17:57:00,
2013-02-07 13:02:00,39.4,27.1,30.19,North,360,3.8,3.8,61,0.00,OVC,,0.00,WeatherDisplay:10.37,2013-02-07 18:02:00,
2013-02-07 13:07:00,39.5,26.8,30.18,North,360,3.6,6.9,60,0.00,OVC,,0.00,WeatherDisplay:10.37,2013-02-07 18:07:00,
2013-02-07 13:12:00,39.7,26.9,30.18,North,360,3.8,8.1,60,0.00,OVC,,0.00,WeatherDisplay:10.37,2013-02-07 18:12:00,
2013-02-07 13:17:00,39.6,26.8,30.17,North,360,3.3,9.2,60,0.00,OVC,,0.00,WeatherDisplay:10.37,2013-02-07 18:17:00,
2013-02-07 13:22:00,39.3,26.6,30.17,North,360,4.7,6.0,60,0.00,OVC,,0.00,WeatherDisplay:10.37,2013-02-07 18:22:00,
2013-02-07 13:27:00,39.3,27.0,30.17,North,360,2.3,3.5,61,0.00,OVC,,0.00,WeatherDisplay:10.37,2013-02-07 18:27:00,
2013-02-07 13:32:00,39.2,26.9,30.17,North,360,2.8,4.6,61,0.00,OVC,,0.00,WeatherDisplay:10.37,2013-02-07 18:32:00,
2013-02-07 13:37:00,39.4,27.1,30.16,North,360,4.3,8.1,61,0.00,OVC,,0.00,WeatherDisplay:10.37,2013-02-07 18:37:00,
2013-02-07 13:42:00,39.5,27.2,30.16,North,360,5.2,11.5,61,0.00,OVC,,0.00,WeatherDisplay:10.37,2013-02-07 18:42:00,
2013-02-07 13:47:00,39.7,26.9,30.16,North,360,1.9,4.6,60,0.00,OVC,,0.00,WeatherDisplay:10.37,2013-02-07 18:47:00,
2013-02-07 13:52:00,40.0,26.8,30.16,North,360,2.5,9.0,59,0.00,OVC,,0.00,WeatherDisplay:10.37,2013-02-07 18:52:00,
2013-02-07 13:57:00,40.4,27.2,30.15,North,360,2.5,5.8,59,0.00,OVC,,0.00,WeatherDisplay:10.37,2013-02-07 18:57:00,
2013-02-07 14:02:00,40.9,27.7,30.15,North,360,4.4,6.0,59,0.00,OVC,,0.00,WeatherDisplay:10.37,2013-02-07 19:02:00,
2013-02-07 14:07:00,41.2,27.1,30.15,North,360,5.4,6.9,57,0.00,OVC,,0.00,WeatherDisplay:10.37,2013-02-07 19:07:00,
2013-02-07 14:12:00,41.3,27.2,30.14,North,360,1.6,3.5,57,0.00,OVC,,0.00,WeatherDisplay:10.37,2013-02-07 19:12:00,
2013-02-07 14:17:00,41.4,27.3,30.14,North,360,4.7,6.0,57,0.00,OVC,,0.00,WeatherDisplay:10.37,2013-02-07 19:17:00,
2013-02-07 14:22:00,41.3,27.2,30.14,North,360,3.2,5.8,57,0.00,OVC,,0.00,WeatherDisplay:10.37,2013-02-07 19:22:00,
2013-02-07 14:27:00,41.3,27.6,30.14,North,360,2.7,4.6,58,0.00,OVC,,0.00,WeatherDisplay:10.37,2013-02-07 19:27:00,
2013-02-07 14:32:00,41.2,27.5,30.13,North,360,3.7,4.6,58,0.00,OVC,,0.00,WeatherDisplay:10.37,2013-02-07 19:32:00,
2013-02-07 14:37:00,41.3,28.0,30.13,North,360,1.9,3.5,59,0.00,OVC,,0.00,WeatherDisplay:10.37,2013-02-07 19:37:00,
2013-02-07 14:42:00,41.5,27.8,30.13,North,360,2.8,5.8,58,0.00,OVC,,0.00,WeatherDisplay:10.37,2013-02-07 19:42:00,
2013-02-07 14:47:00,41.6,27.5,30.13,North,360,3.3,6.9,57,0.00,OVC,,0.00,WeatherDisplay:10.37,2013-02-07 19:47:00,
2013-02-07 14:52:00,41.8,27.7,30.12,North,360,3.9,4.6,57,0.00,OVC,,0.00,WeatherDisplay:10.37,2013-02-07 19:52:00,
2013-02-07 14:57:00,42.0,27.9,30.12,North,360,3.1,4.6,57,0.00,OVC,,0.00,WeatherDisplay:10.37,2013-02-07 19:57:00,
2013-02-07 15:02:00,42.2,27.6,30.11,North,360,3.8,9.2,56,0.00,BKN,,0.00,WeatherDisplay:10.37,2013-02-07 20:02:00,
2013-02-07 15:07:00,42.5,27.9,30.11,North,360,1.1,3.5,56,0.00,BKN,,0.00,WeatherDisplay:10.37,2013-02-07 20:07:00,
2013-02-07 15:12:00,42.8,29.0,30.12,North,360,0.5,3.5,58,0.00,BKN,,0.00,WeatherDisplay:10.37,2013-02-07 20:12:00,
2013-02-07 15:17:00,42.9,28.7,30.12,North,360,2.8,4.6,57,0.00,BKN,,0.00,WeatherDisplay:10.37,2013-02-07 20:17:00,
2013-02-07 15:22:00,43.0,27.9,30.11,North,360,2.0,5.8,55,0.00,BKN,,0.00,WeatherDisplay:10.37,2013-02-07 20:22:00,
2013-02-07 15:27:00,43.2,28.5,30.11,North,360,2.8,4.6,56,0.00,BKN,,0.00,WeatherDisplay:10.37,2013-02-07 20:27:00,
2013-02-07 15:32:00,43.1,28.5,30.11,North,360,2.5,3.5,56,0.00,BKN,,0.00,WeatherDisplay:10.37,2013-02-07 20:32:00,
2013-02-07 15:37:00,43.0,28.8,30.11,North,360,2.5,4.6,57,0.00,BKN,,0.00,WeatherDisplay:10.37,2013-02-07 20:37:00,
2013-02-07 15:42:00,42.8,28.2,30.10,North,360,2.9,8.1,56,0.00,BKN,,0.00,WeatherDisplay:10.37,2013-02-07 20:42:00,
2013-02-07 15:47:00,42.8,28.6,30.10,North,360,4.0,4.0,57,0.00,BKN,,0.00,WeatherDisplay:10.37,2013-02-07 20:47:00,
2013-02-07 15:52:00,42.8,29.0,30.10,North,360,2.1,8.0,58,0.00,BKN,,0.00,WeatherDisplay:10.37,2013-02-07 20:52:00,
2013-02-07 15:57:00,42.9,28.7,30.10,North,360,1.5,8.1,57,0.00,BKN,,0.00,WeatherDisplay:10.37,2013-02-07 20:57:00,
2013-02-07 16:02:00,42.9,28.7,30.10,North,360,3.0,4.0,57,0.00,BKN,,0.00,WeatherDisplay:10.37,2013-02-07 21:02:00,
2013-02-07 16:07:00,43.0,28.8,30.10,North,360,4.4,10.4,57,0.00,BKN,,0.00,WeatherDisplay:10.37,2013-02-07 21:07:00,
2013-02-07 16:12:00,42.9,28.7,30.10,North,360,4.3,8.0,57,0.00,BKN,,0.00,WeatherDisplay:10.37,2013-02-07 21:12:00,
2013-02-07 16:17:00,42.9,28.7,30.09,North,360,4.1,8.1,57,0.00,BKN,,0.00,WeatherDisplay:10.37,2013-02-07 21:17:00,
2013-02-07 16:22:00,42.9,29.1,30.09,North,360,2.1,5.8,58,0.00,BKN,,0.00,WeatherDisplay:10.37,2013-02-07 21:22:00,
2013-02-07 16:27:00,43.0,29.2,30.09,North,360,4.6,6.9,58,0.00,BKN,,0.00,WeatherDisplay:10.37,2013-02-07 21:27:00,
2013-02-07 16:32:00,43.1,29.7,30.09,North,360,0.7,3.5,59,0.00,BKN,,0.00,WeatherDisplay:10.37,2013-02-07 21:32:00,
2013-02-07 16:37:00,42.9,29.5,30.08,North,360,2.0,5.0,59,0.00,BKN,,0.00,WeatherDisplay:10.37,2013-02-07 21:37:00,
2013-02-07 16:42:00,42.8,29.5,30.07,North,360,2.7,4.6,59,0.00,BKN,,0.00,WeatherDisplay:10.37,2013-02-07 21:42:00,
2013-02-07 16:47:00,42.8,29.5,30.08,North,360,4.8,8.1,59,0.00,BKN,,0.00,WeatherDisplay:10.37,2013-02-07 21:47:00,
2013-02-07 16:52:00,42.8,29.0,30.07,North,360,4.1,7.0,58,0.00,BKN,,0.00,WeatherDisplay:10.37,2013-02-07 21:52:00,
2013-02-07 16:57:00,42.7,29.4,30.07,North,360,2.1,8.1,59,0.00,BKN,,0.00,WeatherDisplay:10.37,2013-02-07 21:57:00,
2013-02-07 17:02:00,42.5,29.6,30.07,North,360,2.0,4.6,60,0.00,BKN,,0.00,WeatherDisplay:10.37,2013-02-07 22:02:00,
2013-02-07 17:07:00,42.3,29.4,30.07,North,360,2.8,4.6,60,0.00,BKN,,0.00,WeatherDisplay:10.37,2013-02-07 22:07:00,
2013-02-07 17:12:00,42.2,29.3,30.06,North,360,0.3,2.3,60,0.00,BKN,,0.00,WeatherDisplay:10.37,2013-02-07 22:12:00,
2013-02-07 17:17:00,42.1,29.6,30.06,North,360,2.4,5.0,61,0.00,BKN,,0.00,WeatherDisplay:10.37,2013-02-07 22:17:00,
2013-02-07 17:22:00,42.0,29.5,30.06,North,360,1.2,3.5,61,0.00,BKN,,0.00,WeatherDisplay:10.37,2013-02-07 22:22:00,
2013-02-07 17:27:00,42.0,29.5,30.06,North,360,1.3,4.6,61,0.00,BKN,,0.00,WeatherDisplay:10.37,2013-02-07 22:27:00,
2013-02-07 17:32:00,41.9,29.4,30.06,North,360,0.2,2.3,61,0.00,BKN,,0.00,WeatherDisplay:10.37,2013-02-07 22:32:00,
2013-02-07 17:37:00,41.8,29.3,30.05,North,360,1.7,5.0,61,0.00,BKN,,0.00,WeatherDisplay:10.37,2013-02-07 22:37:00,
2013-02-07 17:42:00,41.5,29.4,30.05,North,360,1.8,3.0,62,0.00,BKN,,0.00,WeatherDisplay:10.37,2013-02-07 22:42:00,
2013-02-07 17:47:00,41.3,29.6,30.05,North,360,1.4,6.9,63,0.00,BKN,,0.00,WeatherDisplay:10.37,2013-02-07 22:47:00,
2013-02-07 17:52:00,41.1,29.5,30.05,North,360,2.3,5.8,63,0.00,BKN,,0.00,WeatherDisplay:10.37,2013-02-07 22:52:00,
2013-02-07 17:57:00,40.9,29.3,30.05,North,360,2.8,3.5,63,0.00,BKN,,0.00,WeatherDisplay:10.37,2013-02-07 22:57:00,
2013-02-07 18:02:00,40.7,29.1,30.05,North,360,1.7,3.5,63,0.00,BKN,,0.00,WeatherDisplay:10.37,2013-02-07 23:02:00,
2013-02-07 18:07:00,40.5,29.3,30.04,North,360,1.4,4.0,64,0.00,BKN,,0.00,WeatherDisplay:10.37,2013-02-07 23:07:00,
2013-02-07 18:12:00,40.3,29.1,30.04,North,360,4.5,6.9,64,0.00,BKN,,0.00,WeatherDisplay:10.37,2013-02-07 23:12:00,
2013-02-07 18:17:00,40.1,29.3,30.04,North,360,1.4,3.5,65,0.00,BKN,,0.00,WeatherDisplay:10.37,2013-02-07 23:17:00,
2013-02-07 18:22:00,39.9,29.1,30.04,ESE,123,2.7,3.5,65,0.00,BKN,,0.00,WeatherDisplay:10.37,2013-02-07 23:22:00,
2013-02-07 18:27:00,39.7,28.9,30.03,SSE,148,4.1,8.1,65,0.00,BKN,,0.00,WeatherDisplay:10.37,2013-02-07 23:27:00,
2013-02-07 18:32:00,39.6,29.2,30.03,ESE,121,4.7,11.5,66,0.00,BKN,,0.00,WeatherDisplay:10.37,2013-02-07 23:32:00,
2013-02-07 18:37:00,39.5,29.1,30.03,SSE,159,5.4,9.0,66,0.00,BKN,,0.00,WeatherDisplay:10.37,2013-02-07 23:37:00,
2013-02-07 18:42:00,39.5,29.1,30.03,ESE,106,6.9,11.5,66,0.00,BKN,,0.00,WeatherDisplay:10.37,2013-02-07 23:42:00,
2013-02-07 18:47:00,39.5,28.7,30.04,SE,130,2.9,6.9,65,0.00,BKN,,0.00,WeatherDisplay:10.37,2013-02-07 23:47:00,
2013-02-07 18:52:00,39.4,29.0,30.04,SE,132,4.5,6.9,66,0.00,BKN,,0.00,WeatherDisplay:10.37,2013-02-07 23:52:00,
2013-02-07 18:57:00,39.3,28.9,30.04,SSE,153,4.5,12.7,66,0.00,BKN,,0.00,WeatherDisplay:10.37,2013-02-07 23:57:00,
2013-02-07 19:02:00,39.3,28.9,30.04,SSE,157,4.0,8.1,66,0.00,SCT,,0.00,WeatherDisplay:10.37,2013-02-08 00:02:00,
2013-02-07 19:07:00,39.3,28.9,30.04,SSE,161,2.0,9.2,66,0.00,SCT,,0.00,WeatherDisplay:10.37,2013-02-08 00:07:00,
2013-02-07 19:12:00,39.2,28.8,30.04,South,181,5.2,11.5,66,0.00,SCT,,0.00,WeatherDisplay:10.37,2013-02-08 00:12:00,
2013-02-07 19:17:00,39.2,28.8,30.05,SE,128,3.7,11.5,66,0.00,SCT,,0.00,WeatherDisplay:10.37,2013-02-08 00:17:00,
2013-02-07 19:22:00,39.0,29.0,30.04,SE,145,3.6,7.0,67,0.00,SCT,,0.00,WeatherDisplay:10.37,2013-02-08 00:22:00,
2013-02-07 19:27:00,38.9,28.9,30.04,SSE,153,3.7,5.8,67,0.00,SCT,,0.00,WeatherDisplay:10.37,2013-02-08 00:27:00,
2013-02-07 19:32:00,38.7,28.7,30.03,SSE,166,4.7,5.8,67,0.00,SCT,,0.00,WeatherDisplay:10.37,2013-02-08 00:32:00,
2013-02-07 19:37:00,38.5,28.9,30.03,SSE,150,5.0,6.9,68,0.00,SCT,,0.00,WeatherDisplay:10.37,2013-02-08 00:37:00,
2013-02-07 19:42:00,38.4,28.8,30.03,South,178,6.2,9.0,68,0.00,SCT,,0.00,WeatherDisplay:10.37,2013-02-08 00:42:00,
2013-02-07 19:47:00,38.4,28.8,30.02,SSE,147,6.7,8.1,68,0.00,SCT,,0.00,WeatherDisplay:10.37,2013-02-08 00:47:00,
2013-02-07 19:52:00,38.4,28.8,30.02,SSE,167,6.1,15.0,68,0.00,SCT,,0.00,WeatherDisplay:10.37,2013-02-08 00:52:00,
2013-02-07 19:57:00,38.4,28.8,30.02,SSE,161,5.7,11.5,68,0.00,SCT,,0.00,WeatherDisplay:10.37,2013-02-08 00:57:00,
2013-02-07 20:02:00,38.2,28.9,30.01,SE,138,4.4,7.0,69,0.00,SCT,,0.00,WeatherDisplay:10.37,2013-02-08 01:02:00,
2013-02-07 20:07:00,38.1,28.8,30.01,SSE,162,1.7,5.8,69,0.00,SCT,,0.00,WeatherDisplay:10.37,2013-02-08 01:07:00,
2013-02-07 20:12:00,37.9,29.0,30.01,SSE,162,2.6,4.6,70,0.00,SCT,,0.00,WeatherDisplay:10.37,2013-02-08 01:12:00,
2013-02-07 20:17:00,37.7,28.8,30.01,SSE,150,3.9,11.0,70,0.00,SCT,,0.00,WeatherDisplay:10.37,2013-02-08 01:17:00,
2013-02-07 20:22:00,37.6,28.7,30.00,SE,128,7.1,9.2,70,0.00,SCT,,0.00,WeatherDisplay:10.37,2013-02-08 01:22:00,
2013-02-07 20:27:00,37.6,28.7,30.00,SE,130,5.4,10.4,70,0.00,SCT,,0.00,WeatherDisplay:10.37,2013-02-08 01:27:00,
2013-02-07 20:32:00,37.5,28.9,30.00,SSE,156,8.5,15.0,71,0.00,SCT,,0.00,WeatherDisplay:10.37,2013-02-08 01:32:00,
2013-02-07 20:37:00,37.4,28.9,30.00,SE,144,4.8,11.5,71,0.00,SCT,,0.00,WeatherDisplay:10.37,2013-02-08 01:37:00,
2013-02-07 20:42:00,37.3,28.8,30.00,SSE,147,5.1,9.2,71,0.00,SCT,,0.00,WeatherDisplay:10.37,2013-02-08 01:42:00,
2013-02-07 20:47:00,37.1,28.6,30.00,SSE,157,2.4,6.9,71,0.00,SCT,,0.00,WeatherDisplay:10.37,2013-02-08 01:47:00,
2013-02-07 20:52:00,37.0,28.8,30.00,SSE,161,5.1,6.9,72,0.00,SCT,,0.00,WeatherDisplay:10.37,2013-02-08 01:52:00,
2013-02-07 20:57:00,37.0,28.8,30.00,South,176,8.2,11.5,72,0.00,SCT,,0.00,WeatherDisplay:10.37,2013-02-08 01:57:00,
2013-02-07 21:02:00,36.9,28.7,29.99,SE,138,8.4,11.5,72,0.00,SCT,,0.00,WeatherDisplay:10.37,2013-02-08 02:02:00,
2013-02-07 21:07:00,36.8,29.0,29.99,South,170,5.8,9.0,73,0.00,SCT,,0.00,WeatherDisplay:10.37,2013-02-08 02:07:00,
2013-02-07 21:12:00,36.7,28.9,29.99,SE,142,4.9,10.4,73,0.00,SCT,,0.00,WeatherDisplay:10.37,2013-02-08 02:12:00,
2013-02-07 21:17:00,36.6,28.8,29.99,ESE,110,6.5,8.1,73,0.00,SCT,,0.00,WeatherDisplay:10.37,2013-02-08 02:17:00,
2013-02-07 21:22:00,36.5,28.7,29.99,North,360,4.4,6.9,73,0.00,SCT,,0.00,WeatherDisplay:10.37,2013-02-08 02:22:00,
2013-02-07 21:27:00,36.4,28.9,29.98,North,360,3.3,9.2,74,0.00,SCT,,0.00,WeatherDisplay:10.37,2013-02-08 02:27:00,
2013-02-07 21:32:00,36.4,28.9,29.98,North,360,3.9,9.2,74,0.00,SCT,,0.00,WeatherDisplay:10.37,2013-02-08 02:32:00,
2013-02-07 21:37:00,36.3,28.8,29.98,North,360,1.9,4.6,74,0.00,SCT,,0.00,WeatherDisplay:10.37,2013-02-08 02:37:00,
2013-02-07 21:42:00,36.2,28.7,29.98,North,360,2.2,5.8,74,0.00,SCT,,0.00,WeatherDisplay:10.37,2013-02-08 02:42:00,
2013-02-07 21:47:00,36.2,29.0,29.98,North,360,6.1,12.7,75,0.00,SCT,,0.00,WeatherDisplay:10.37,2013-02-08 02:47:00,
2013-02-07 21:52:00,36.1,28.9,29.98,North,360,2.8,5.8,75,0.00,SCT,,0.00,WeatherDisplay:10.37,2013-02-08 02:52:00,
2013-02-07 21:57:00,36.0,28.8,29.98,North,360,3.4,10.4,75,0.00,SCT,,0.00,WeatherDisplay:10.37,2013-02-08 02:57:00,
2013-02-07 22:02:00,36.0,28.8,29.97,North,360,2.7,5.8,75,0.00,SCT,,0.00,WeatherDisplay:10.37,2013-02-08 03:02:00,
2013-02-07 22:07:00,35.9,29.1,29.97,North,360,2.8,12.7,76,0.00,SCT,,0.00,WeatherDisplay:10.37,2013-02-08 03:07:00,
2013-02-07 22:12:00,35.8,29.0,29.97,North,360,4.7,5.0,76,0.00,SCT,,0.00,WeatherDisplay:10.37,2013-02-08 03:12:00,
2013-02-07 22:17:00,35.8,29.0,29.97,North,360,3.6,5.0,76,0.00,SCT,,0.00,WeatherDisplay:10.37,2013-02-08 03:17:00,
2013-02-07 22:22:00,35.7,28.9,29.97,North,360,4.1,9.2,76,0.00,SCT,,0.00,WeatherDisplay:10.37,2013-02-08 03:22:00,
2013-02-07 22:27:00,35.6,28.8,29.96,North,360,5.0,14.0,76,0.00,SCT,,0.00,WeatherDisplay:10.37,2013-02-08 03:27:00,
2013-02-07 22:32:00,35.5,28.7,29.96,North,360,6.8,10.4,76,0.00,SCT,,0.00,WeatherDisplay:10.37,2013-02-08 03:32:00,
2013-02-07 22:37:00,35.5,28.7,29.96,North,360,6.7,12.7,76,0.00,SCT,,0.00,WeatherDisplay:10.37,2013-02-08 03:37:00,
2013-02-07 22:42:00,35.5,28.7,29.96,North,360,4.1,8.1,76,0.00,SCT,,0.00,WeatherDisplay:10.37,2013-02-08 03:42:00,
2013-02-07 22:47:00,35.4,28.9,29.96,North,360,2.9,5.8,77,0.00,SCT,,0.00,WeatherDisplay:10.37,2013-02-08 03:47:00,
2013-02-07 22:52:00,35.3,28.8,29.95,North,360,4.2,8.1,77,0.00,SCT,,0.00,WeatherDisplay:10.37,2013-02-08 03:52:00,
2013-02-07 22:57:00,35.3,28.8,29.95,North,360,3.1,9.2,77,0.00,SCT,,0.00,WeatherDisplay:10.37,2013-02-08 03:57:00,
2013-02-07 23:02:00,35.2,28.7,29.95,North,360,4.3,7.0,77,0.00,SCT,,0.00,WeatherDisplay:10.37,2013-02-08 04:02:00,
2013-02-07 23:07:00,35.2,28.7,29.95,North,360,4.7,4.7,77,0.00,SCT,,0.00,WeatherDisplay:10.37,2013-02-08 04:07:00,
2013-02-07 23:12:00,35.2,28.7,29.95,North,360,6.3,9.2,77,0.00,SCT,,0.00,WeatherDisplay:10.37,2013-02-08 04:12:00,
2013-02-07 23:17:00,35.1,28.6,29.95,North,360,4.1,8.1,77,0.00,SCT,,0.00,WeatherDisplay:10.37,2013-02-08 04:17:00,
2013-02-07 23:22:00,35.1,28.9,29.95,North,360,2.0,8.1,78,0.00,SCT,,0.00,WeatherDisplay:10.37,2013-02-08 04:22:00,
2013-02-07 23:27:00,35.0,28.8,29.94,North,360,4.1,8.1,78,0.00,SCT,,0.00,WeatherDisplay:10.37,2013-02-08 04:27:00,
2013-02-07 23:32:00,35.0,28.8,29.94,North,360,3.8,9.2,78,0.00,SCT,,0.00,WeatherDisplay:10.37,2013-02-08 04:32:00,
2013-02-07 23:37:00,34.9,28.7,29.94,North,360,2.8,7.0,78,0.00,SCT,,0.00,WeatherDisplay:10.37,2013-02-08 04:37:00,
2013-02-07 23:42:00,34.8,28.6,29.94,North,360,3.2,6.9,78,0.00,SCT,,0.00,WeatherDisplay:10.37,2013-02-08 04:42:00,
2013-02-07 23:47:00,34.8,28.6,29.93,North,360,3.7,8.1,78,0.00,SCT,,0.00,WeatherDisplay:10.37,2013-02-08 04:47:00,
2013-02-07 23:52:00,34.8,28.6,29.93,North,360,3.5,8.1,78,0.00,SCT,,0.00,WeatherDisplay:10.37,2013-02-08 04:52:00,
2013-02-07 23:57:00,34.8,28.6,29.93,North,360,3.6,6.9,78,0.00,SCT,,0.00,WeatherDisplay:10.37,2013-02-08 04:57:00,